Location: Bijele Vode
(45.2833°N, 16.2000°E)
Time: 01:08:42
(UTC+00:00)

SJ-6B - Pass Details

Date: 18 September 2020
Orbit: 511 x 580 km, 97.6° (Epoch: 26 October)

Event Time Altitude Azimuth Distance (km) Brightness Sun altitude
Exits shadow 17:46:03 12° 111° (ESE) 1,632 4.6 -8.9°
Maximum altitude 17:48:30 20° 66° (ENE) 1,223 4.1 -9.3°
Drops below altitude 10° 17:51:18 10° 18° (NNE) 1,751 5.3 -9.8°
Sets 17:53:48 0° 1° (N) 2,651 6.5 -10.2°
